This is the latest recevied weather packets stored in our database for station/object N9ALD. If no packets are shown the sender has not sent any weather packets the latest 10 day(s).
| Time | Temp. | Humidity | Pressure | Rain* | Wind** | Luminosity | Snow |
|---|---|---|---|---|---|---|---|
| 1777675734 | 11.11° C | 56% | 1012.6 hPa | 0 mm | - | 163 W/m² | - |
| 1777675433 | 11.11° C | 57% | 1012.8 hPa | 0 mm | - | 188 W/m² | - |
| 1777675128 | 11.11° C | 56% | 1012.9 hPa | 0 mm | - | 213 W/m² | - |
| 1777674825 | 10.56° C | 58% | 1012.8 hPa | 0 mm | - | 179 W/m² | - |
| 1777674521 | 10.56° C | 59% | 1013.1 hPa | 0 mm | - | 204 W/m² | - |
| 1777674220 | 10.56° C | 59% | 1013 hPa | 0 mm | - | 140 W/m² | - |
| 1777673915 | 11.11° C | 58% | 1013 hPa | 0 mm | - | 155 W/m² | - |
| 1777673612 | 11.67° C | 59% | 1013 hPa | 0 mm | - | 98 W/m² | - |
| 1777673310 | 11.67° C | 57% | 1012.8 hPa | 0 mm | - | 88 W/m² | - |
| 1777673007 | 11.67° C | 54% | 1012.8 hPa | 0 mm | - | 124 W/m² | - |
| 1777672704 | 11.67° C | 54% | 1012.8 hPa | 0 mm | - | 158 W/m² | - |
| 1777672400 | 11.67° C | 53% | 1012.8 hPa | 0 mm | - | 169 W/m² | - |
| 1777672095 | 11.67° C | 53% | 1012.9 hPa | 0 mm | - | 165 W/m² | - |
| 1777671791 | 12.22° C | 54% | 1012.8 hPa | 0 mm | - | 180 W/m² | - |
| 1777671487 | 12.78° C | 52% | 1012.7 hPa | 0 mm | - | 171 W/m² | - |
| 1777671183 | 12.78° C | 53% | 1012.7 hPa | 0 mm | - | 238 W/m² | - |
| 1777670879 | 12.78° C | 49% | 1012.8 hPa | 0 mm | - | 463 W/m² | - |
| 1777670576 | 12.22° C | 49% | 1012.8 hPa | 0 mm | - | 477 W/m² | - |
| 1777670273 | 12.22° C | 51% | 1012.9 hPa | 0 mm | - | 492 W/m² | - |
| 1777669970 | 12.22° C | 55% | 1012.8 hPa | 0 mm | - | 454 W/m² | - |
| 1777669667 | 11.67° C | 58% | 1012.8 hPa | 0 mm | - | 503 W/m² | - |
| 1777669364 | 11.67° C | 53% | 1012.9 hPa | 0 mm | - | 253 W/m² | - |
| 1777669060 | 11.67° C | 53% | 1012.7 hPa | 0 mm | - | 252 W/m² | - |
| 1777668758 | 11.67° C | 51% | 1013 hPa | 0 mm | - | 293 W/m² | - |
| 1777668454 | 11.67° C | 57% | 1012.8 hPa | 0 mm | - | 241 W/m² | - |
* Rain latest hour (hover to see other rain measurements)
** Current wind speed in m/s (hover to see current wind gust speed)